SCP
-0 -0 0 -0 0 -0 -0 -0 -0 -0 -0 -0 -0 0 0 0 0 -0 -0 -0 -0 0 0 0 0 -0 -0 -0 -0 -0 -0 -0 -0 -0 -0 -0 -0 0 -0 0 0 0 0 0 0 0 0 0 0
0 0 -0 -0 -0 0 -0 -0 -0 -0 -0 0 0 0 0 0 0 0 -0 0 0 0 0 -0 0 0 0 0 -0 -0 0 0 -0 0 0 0 -0 0 -0 -0 -0 -0 0 0 0 0 0 0 0
0 -0 0 0 0 0 0 0 0 -0 0 0 0 0 0 0 0 0 0 0 0 0 0 -0 0 -0 -0 -0 -0 0 -0 -0 -0 -0 -0 -0 -0 -0 -0 -0 -0 -0 -0 0 0 0 0 0 0
0 0 0 0 0 0 0 0 0 0 -0 -0 0 0 0 0 0 0 0 0 0 0 0 -0 -0 -0 -0 -0 -0 0 0 -0 -0 -0 -0 -0 -0 -0 -0 -0 -0 -0 -0 -0 -0 0 0 0 0
0 0 0 0 0 0 0 0 -0 -0 0 0 0 0 0 0 0 0 0 0 0 0 0 -0 0 -0 -0 -0 -0 -0 -0 -0 -0 -0 -0 -0 -0 -0 -0 -0 -0 -0 -0 -0 -0 0 0 0 0
0 0 0 0 0 0 0 0 0 0 0 0 -0 0 0 0 0 0 0 0 0 0 0 0 0 -0 -0 -0 -0 -0 -0 -0 -0 -0 -0 -0 -0 -0 -0 -0 -0 -0 -0 -0 -0 0 0 0 0
0 0 0 0 0 0 0 0 0 0 0 0 0 0 0 0 0 0 0 0 0 0 0 0 0 0 0 0 0 0 -0 -0 -0 -0 -0 -0 0 -0 0 0 -0 -0 0 -0 -0 0 0 0 0
0 0 0 0 0 0 0 0 0 0 0 0 0 0 0 0 0 0 0 0 0 0 0 0 0 0 0 0 0 0 0 0 0 -0 -0 0 0 0 0 0 0 0 0 0 0 0 0 0 0
0 0 0 0 0 0 0 0 0 0 0 0 0 0 0 0 0 0 0 0 0 0 0 0 0 0 0 0 0 0 0 0 0 0 0 0 0 0 0 0 0 0 0 0 0 0 0 0 0
0 0 0 0 0 0 0 0 0 0 0 0 0 0 0 0 0 0 0 0 0 0 0 0 0 0 0 0 0 0 0 0 0 0 0 0 0 0 0 0 0 0 0 0 0 0 0 0 0
0 0 0 0 0 0 0 0 0 0 0 0 0 0 0 0 0 0 0 0 0 0 0 0 0 0 0 0 0 0 0 0 0 0 0 0 0 0 0 0 0 0 0 0 0 0 0 0 0
0 0 0 0 0 0 0 0 0 0 0 0 0 0 0 0 0 0 0 0 0 0 0 0 0 0 0 0 0 0 0 0 0 0 0 0 0 0 0 0 0 0 0 0 0 0 0 0 0
0 0 0 0 0 0 0 0 0 0 0 0 0 0 0 0 0 0 0 0 0 0 0 0 0 0 0 0 0 0 0 0 0 0 0 0 0 0 0 0 0 0 0 0 0 0 0 0 0
0 0 0 0 0 0 0 0 0 0 0 0 0 0 0 0 0 0 0 0 0 0 0 0 0 0 0 0 0 0 0 0 0 0 0 0 0 0 0 0 0 0 0 0 0 0 0 0 0
0 0 0 0 0 0 0 0 0 0 0 0 0 -0 0 0 0 0 0 0 0 0 0 0 0 0 0 0 0 0 0 0 0 0 0 0 0 0 0 0 0 0 0 0 0 0 0 0 0
0 0 0 0 0 0 0 0 0 0 0 0 0 0 0 0 0 0 0 0 0 0 0 0 0 0 0 0 0 0 0 0 0 0 0 0 0 0 0 0 0 0 0 0 0 0 0 0 0
0 0 0 0 0 0 0 0 0 0 0 0 0 0 0 0 0 0 0 0 0 0 0 0 0 0 0 0 0 0 0 0 0 0 0 0 0 0 0 0 0 0 0 0 0 0 0 0 0
0 0 0 0 0 0 0 0 0 0 0 0 0 0 0 0 0 0 0 0 0 0 0 0 0 0 0 0 0 0 0 0 0 0 0 0 0 0 0 0 0 0 0 0 0 0 0 0 0
0 0 0 0 0 0 0 0 0 0 0 0 0 0 0 0 0 0 0 0 0 0 0 0 0 0 0 0 0 0 0 0 0 0 0 0 0 0 0 0 0 0 0 0 0 0 0 0 0
0 0 0 0 0 0 0 0 0 0 0 0 0 0 0 0 0 0 0 0 0 0 0 0 0 0 0 0 0 0 0 0 0 0 0 0 0 0 0 0 0 0 0 0 0 0 0 0 0
0 0 0 0 0 0 0 0 0 0 0 0 0 0 0 0 0 0 0 0 0 0 0 0 0 0 0 0 0 0 0 0 0 0 0 0 0 0 0 0 0 0 0 0 0 0 0 0 0
0 0 0 0 0 0 0 0 0 0 0 0 0 0 0 0 0 0 0 0 0 0 0 0 0 0 0 0 0 0 0 0 0 0 0 0 0 0 0 0 0 0 0 0 0 0 0 0 0
0 0 0 0 0 0 0 0 0 0 0 0 0 0 0 0 0 0 0 0 0 0 0 0 0 0 0 0 0 0 0 0 0 0 0 0 0 0 0 0 0 0 0 0 0 0 0 0 0
0 0 0 0 0 0 0 0 0 0 0 0 0 -0 0 0 0 0 0 0 0 0 0 0 0 0 0 0 0 0 0 0 0 0 0 0 0 0 0 0 0 0 0 0 0 0 0 0 0
0 0 0 0 0 0 0 0 0 0 0 0 -0 0 0 0 0 0 0 0 0 0 0 0 0 0 0 0 0 0 0 0 0 0 0 0 0 0 0 0 0 0 0 0 0 0 0 0 0
0 0 0 0 0 0 0 0 0 0 0 0 0 0 0 0 0 0 0 0 0 0 0 0 0 0 0 0 0 0 0 0 0 0 0 0 0 0 0 0 0 0 0 0 0 0 0 0 0
0 0 0 0 0 0 0 0 0 0 0 -0 0 0 0 0 0 0 0 0 0 0 0 0 0 0 0 0 0 0 0 0 0 0 0 0 0 0 0 0 0 0 0 0 0 0 0 0 0
0 0 0 0 0 0 0 0 0 0 0 0 0 0 0 0 0 0 0 0 0 0 0 0 0 0 0 0 0 0 0 0 0 0 0 0 0 0 0 0 0 0 0 0 0 0 0 0 0
0 0 0 0 0 0 0 0 0 0 0 0 0 0 0 0 0 0 0 0 0 0 0 0 0 0 0 0 0 0 0 0 0 0 0 0 0 0 0 0 0 0 0 0 0 0 0 0 0
0 0 0 0 0 0 0 0 0 0 0 0 0 0 0 0 0 -0 0 0 0 0 0 0 0 0 0 0 0 0 0 0 0 0 0 0 0 0 0 0 0 0 0 0 0 0 0 0 0
Wind_Speed_500mb
28 23 20 9 10 4 8 9 4 10 7 8 10 8 19 10 15 8 18 19 28 30 28 30 26 21 18 14 13 10 7 9 16 22 21 24 30 34 30 33 25 17 29 34 34 35 34 35 36
26 21 10 8 9 5 10 5 4 12 9 6 6 3 1 15 10 9 22 25 31 29 26 28 29 24 18 15 14 10 7 11 17 21 21 23 24 32 24 28 27 21 29 30 30 34 33 34 34
23 14 10 8 7 13 9 8 11 11 6 4 3 3 9 8 6 11 14 33 31 28 28 28 30 27 20 15 14 11 8 13 15 19 19 19 23 32 25 21 26 22 25 27 27 30 30 31 31
25 8 8 10 4 11 10 10 14 18 6 3 4 4 5 5 5 9 23 32 30 28 29 31 31 27 21 17 14 11 8 13 12 17 16 19 20 30 27 21 26 20 22 24 26 26 26 26 26
16 12 9 6 6 7 7 4 10 15 11 5 4 9 4 4 4 11 28 32 29 27 27 35 32 27 23 18 15 12 11 14 12 7 15 17 19 24 25 21 25 22 19 23 24 23 22 22 22
15 9 14 13 6 4 10 6 9 12 5 8 5 5 7 6 6 18 27 31 27 28 28 33 34 29 25 22 18 14 14 17 13 9 14 14 16 19 25 21 21 24 19 18 21 19 18 18 17
16 12 21 15 12 10 6 5 8 6 5 3 2 5 7 2 10 23 30 29 31 29 30 30 35 32 29 25 21 17 16 21 20 15 18 13 15 16 24 22 19 20 20 17 17 16 14 14 13
11 11 26 21 20 19 12 11 8 12 6 0 2 2 11 11 7 21 29 29 29 31 32 30 34 35 31 30 27 23 20 23 26 21 19 16 14 15 17 21 21 20 19 17 15 13 11 11 10
6 14 23 27 19 18 12 16 8 5 10 6 7 5 7 7 6 23 27 30 33 37 35 34 34 35 35 31 32 28 26 25 28 25 23 21 16 17 17 20 20 21 20 18 15 12 9 9 7
19 20 36 28 12 13 17 18 12 12 19 13 12 12 11 13 16 23 33 35 38 42 44 39 39 38 38 36 35 33 31 28 27 26 24 23 18 19 20 21 22 22 22 20 17 13 10 7 5
15 29 30 35 17 20 21 17 23 21 27 23 19 17 19 18 23 30 34 38 40 39 39 44 42 40 47 42 40 32 30 30 30 28 28 24 26 30 28 26 27 26 25 23 20 18 14 11 11
19 30 34 23 16 15 23 24 22 29 35 34 22 29 24 28 29 33 38 39 40 43 45 48 44 44 44 46 41 39 37 36 34 35 34 33 33 31 31 29 29 29 28 24 24 22 19 15 13
25 33 22 31 16 21 26 30 33 49 41 37 37 38 34 36 36 35 38 38 41 46 48 51 51 49 50 48 43 42 42 42 39 39 40 38 36 35 33 31 31 31 30 29 26 25 23 20 17
3 29 31 27 21 29 24 40 33 44 32 37 37 41 42 42 42 40 43 45 48 48 50 51 55 57 53 53 53 49 46 44 44 42 42 42 40 40 38 37 36 34 34 31 29 27 24 22 21
18 21 22 28 28 24 17 35 41 65 50 50 49 49 44 45 44 48 46 50 52 52 51 56 55 59 61 58 55 52 53 51 49 48 47 44 45 44 42 42 41 39 38 35 33 32 30 26 25
17 21 23 16 35 24 17 37 33 39 36 45 37 38 44 50 52 52 50 50 50 53 56 57 59 60 64 65 61 58 55 55 55 53 51 49 48 48 46 46 45 43 42 40 38 36 34 31 27
19 21 33 26 32 17 25 25 24 28 37 49 47 43 41 44 44 46 49 50 51 55 56 58 63 63 66 69 67 65 64 63 60 59 56 55 53 52 50 51 48 46 46 44 42 40 37 32 30
24 32 32 30 19 25 33 41 37 47 55 50 54 53 53 52 52 45 47 52 51 54 56 58 62 65 69 70 71 72 75 74 68 64 63 60 59 58 57 55 54 51 51 48 47 46 42 37 28
33 34 32 26 13 21 34 42 41 54 60 60 60 60 62 61 58 50 52 51 54 56 56 65 67 67 74 76 80 84 87 81 76 74 70 69 68 66 64 63 61 59 59 54 51 49 46 43 38
41 38 38 28 14 19 37 51 46 51 62 66 64 67 65 63 61 54 53 55 58 60 69 69 68 72 77 82 80 83 85 83 80 82 80 80 77 75 72 70 70 68 65 61 59 58 54 50 44
37 39 31 30 24 30 34 56 51 53 75 74 73 77 77 75 73 74 64 62 63 67 74 78 79 78 82 82 80 82 80 83 86 90 89 90 85 85 80 79 77 75 74 71 66 66 64 59 52
37 32 31 27 18 18 7 22 40 40 46 46 52 54 60 60 63 64 58 58 62 70 72 83 90 86 87 84 86 90 93 94 93 91 89 89 89 92 88 87 83 82 83 81 73 73 72 65 62
24 20 21 25 28 29 36 19 11 15 28 28 30 40 48 50 49 51 52 53 58 58 70 82 91 97 94 92 93 94 98 99 96 92 92 91 89 93 94 94 89 89 90 88 81 82 80 77 72
11 19 21 19 5 14 31 26 22 23 14 11 17 38 36 38 35 31 37 40 42 47 56 73 81 88 95 101 98 100 102 100 98 99 100 96 93 93 93 95 96 95 94 92 90 87 86 84 80
30 20 6 9 9 15 20 25 39 14 19 33 36 32 33 30 30 32 38 35 33 40 50 57 75 84 83 94 103 104 104 102 102 100 103 104 101 102 97 96 99 98 96 97 97 94 92 91 87
39 28 10 16 11 12 22 24 24 10 21 26 27 25 28 20 14 13 19 30 34 36 42 49 52 73 76 81 99 105 102 99 102 102 105 106 107 104 97 99 100 97 93 97 100 100 97 97 94
27 34 36 24 3 7 14 36 35 31 34 46 35 23 2 6 13 16 28 46 55 57 38 39 49 57 64 78 87 99 103 105 104 103 103 104 103 104 100 98 96 90 94 96 98 96 96 95 97
33 21 7 9 12 18 29 37 27 12 19 23 13 26 5 14 16 27 36 44 57 44 51 43 47 60 65 70 78 92 86 97 105 103 103 103 103 101 98 99 98 89 84 88 92 90 87 89 92
30 34 15 11 12 9 10 18 13 19 15 3 12 5 16 17 32 44 42 50 54 52 49 51 48 44 60 65 66 85 69 79 89 98 102 104 104 99 97 100 97 91 86 81 82 82 81 84 85
40 51 47 18 19 10 19 33 9 9 2 11 12 11 17 28 41 48 49 62 50 54 54 47 50 49 43 48 61 74 65 71 84 92 94 94 97 97 98 98 95 89 86 81 78 78 79 79 79
Wind_Direction_500mb
356 348 336 310 250 220 76 79 51 98 118 56 92 343 13 18 7 37 144 154 156 151 167 166 159 161 149 144 131 119 114 115 117 117 112 114 117 113 114 112 105 91 99 97 95 95 93 91 90
356 3 312 290 273 263 90 63 94 68 67 114 139 297 220 73 56 110 143 158 152 153 159 169 162 168 157 146 123 118 125 132 132 124 120 120 122 120 113 121 121 109 101 101 97 98 95 93 92
346 342 292 312 293 45 63 76 112 97 102 151 189 326 353 55 75 138 158 157 157 156 156 183 168 171 164 148 128 123 126 120 126 121 129 125 124 133 121 124 117 115 106 104 103 99 99 97 96
356 292 226 263 39 72 34 59 129 142 157 215 324 142 88 70 94 155 167 163 158 161 161 178 170 175 170 156 141 133 137 128 125 136 139 141 138 138 134 128 122 125 115 111 106 104 103 100 98
327 276 267 251 102 93 43 4 181 160 135 135 262 66 60 91 166 174 169 167 162 164 171 175 171 182 178 172 161 154 161 158 153 170 154 143 141 142 138 137 135 134 127 114 111 109 106 103 100
292 291 258 240 150 142 80 65 189 182 127 123 196 320 71 286 205 175 166 165 169 168 174 181 179 187 187 185 181 173 167 168 175 193 163 146 145 149 148 148 146 147 138 120 116 112 107 106 104
283 277 277 295 242 211 130 148 197 209 213 160 12 309 91 73 185 176 168 171 174 179 174 191 185 190 190 194 195 197 182 178 181 192 173 157 162 164 161 161 166 155 150 147 133 122 116 113 110
260 270 270 255 265 252 157 178 190 216 190 340 242 134 114 148 195 177 175 177 181 187 184 185 189 195 197 202 204 211 207 202 214 210 186 175 179 184 179 176 173 170 163 162 152 143 135 124 118
206 246 250 245 242 266 159 195 204 222 219 204 207 261 176 196 190 182 183 192 192 199 193 190 196 195 200 204 211 214 218 213 224 212 199 183 187 194 189 188 187 179 180 176 171 168 156 142 137
217 231 244 259 274 257 196 237 212 229 209 210 210 207 228 224 204 198 201 202 206 209 204 199 197 201 202 202 216 215 222 224 223 218 201 187 192 199 191 202 197 193 194 193 189 189 184 176 175
214 241 250 258 255 263 265 238 245 256 254 247 240 203 205 203 210 208 214 216 218 214 213 207 206 199 206 201 212 207 218 215 217 217 213 193 204 214 209 209 207 205 204 206 202 206 205 195 196
246 240 261 273 271 238 245 253 253 251 263 283 271 249 236 218 215 221 217 216 215 217 217 220 211 207 214 208 211 209 211 212 215 214 211 208 209 217 210 215 213 214 212 212 212 215 220 220 222
242 247 242 250 253 251 267 249 258 264 266 267 272 265 252 245 237 229 228 221 217 223 225 227 216 215 216 213 216 212 215 217 217 218 219 215 215 218 214 219 217 218 219 220 220 224 230 233 237
280 240 247 248 254 258 258 261 256 259 266 260 260 259 258 254 248 240 227 220 225 225 224 227 223 221 218 221 220 219 220 221 217 221 223 220 218 220 221 221 223 223 225 224 225 229 235 242 246
249 254 250 237 239 252 262 261 248 260 260 261 262 259 261 263 250 245 239 229 224 230 223 224 231 228 224 223 225 223 225 227 224 224 225 223 222 224 224 226 227 227 230 228 229 231 235 241 248
222 241 251 234 228 220 226 261 266 258 259 252 258 263 258 262 261 254 246 239 228 224 226 221 231 231 229 229 226 227 229 229 229 225 228 226 225 226 227 229 229 231 233 232 234 236 239 241 245
221 242 220 241 211 235 212 271 264 266 271 260 269 264 265 266 263 260 251 244 234 225 224 224 227 230 230 229 231 229 229 231 232 229 229 230 229 227 229 230 232 232 234 236 235 237 238 242 240
225 227 243 247 202 214 251 263 265 267 274 270 266 271 267 264 262 262 258 251 240 233 224 226 229 231 228 227 231 231 234 234 233 231 233 233 234 232 230 232 232 232 235 236 237 238 239 236 239
253 245 253 252 244 292 270 273 274 273 267 266 264 264 265 266 265 263 257 250 245 232 227 226 227 230 226 225 227 230 235 236 237 235 232 236 236 235 232 232 234 234 236 237 238 240 237 240 232
242 252 250 256 275 276 278 274 270 268 269 265 266 268 269 269 265 263 259 251 244 239 236 233 227 231 230 229 233 236 241 242 242 240 236 234 236 237 236 235 235 237 238 237 237 238 238 238 237
234 239 245 262 290 275 287 284 263 254 257 260 259 263 264 264 266 268 264 253 245 238 238 239 239 237 235 232 231 232 235 242 242 240 238 236 236 239 238 238 237 239 241 240 241 242 240 240 235
240 240 256 262 273 258 260 288 288 289 275 272 271 263 261 258 259 265 266 260 252 246 241 242 248 244 240 236 230 232 234 237 242 243 244 241 239 240 241 242 240 240 243 243 242 244 245 241 239
233 249 242 247 253 267 258 271 281 270 281 273 261 267 261 262 262 269 266 269 264 253 250 243 245 246 243 240 235 234 235 239 243 243 244 244 242 242 243 244 243 242 242 246 244 244 244 245 243
208 241 258 258 310 240 234 227 281 258 271 313 275 268 275 268 272 287 282 277 272 260 255 244 244 244 244 242 241 236 239 239 237 243 245 246 245 245 243 244 245 245 244 246 247 246 247 247 248
220 211 207 221 212 244 211 208 244 285 267 291 272 290 302 288 292 289 292 295 287 271 266 258 247 243 236 240 242 243 242 242 243 245 247 247 246 244 245 243 243 244 245 245 246 247 248 249 248
207 189 209 215 210 249 192 232 244 238 253 269 272 295 304 300 306 330 343 2 345 303 267 258 258 248 238 232 242 246 244 244 245 245 247 249 250 252 253 249 246 246 245 245 245 248 250 250 252
194 220 235 273 297 278 226 249 262 254 246 267 261 263 223 9 2 12 7 359 359 357 326 270 268 261 252 240 239 243 246 246 247 250 250 249 251 252 252 252 251 248 246 245 244 244 247 246 249
232 156 149 206 224 232 241 246 246 190 225 265 247 196 287 317 316 340 341 338 346 350 354 336 291 274 258 253 239 239 249 252 252 253 253 249 249 249 247 249 252 251 247 244 242 243 244 241 246
209 225 228 212 222 228 250 240 259 282 272 239 347 155 330 353 334 334 332 331 331 332 332 339 329 295 263 248 244 240 248 252 255 254 255 254 249 245 242 246 249 252 250 245 241 241 244 244 246
218 221 215 217 214 264 278 269 291 285 220 335 315 359 332 320 327 330 326 330 320 325 331 325 322 315 293 257 245 248 250 252 251 251 251 248 243 243 242 245 247 249 251 249 243 241 242 245 246
Wind_Speed_850mb
28 23 20 9 10 4 8 9 4 10 7 8 10 8 19 10 15 8 18 19 28 30 28 30 26 21 18 14 13 10 7 9 16 22 21 24 30 34 30 33 25 17 29 34 34 35 34 35 36
26 21 10 8 9 5 10 5 4 12 9 6 6 3 1 15 10 9 22 25 31 29 26 28 29 24 18 15 14 10 7 11 17 21 21 23 24 32 24 28 27 21 29 30 30 34 33 34 34
23 14 10 8 7 13 9 8 11 11 6 4 3 3 9 8 6 11 14 33 31 28 28 28 30 27 20 15 14 11 8 13 15 19 19 19 23 32 25 21 26 22 25 27 27 30 30 31 31
25 8 8 10 4 11 10 10 14 18 6 3 4 4 5 5 5 9 23 32 30 28 29 31 31 27 21 17 14 11 8 13 12 17 16 19 20 30 27 21 26 20 22 24 26 26 26 26 26
16 12 9 6 6 7 7 4 10 15 11 5 4 9 4 4 4 11 28 32 29 27 27 35 32 27 23 18 15 12 11 14 12 7 15 17 19 24 25 21 25 22 19 23 24 23 22 22 22
15 9 14 13 6 4 10 6 9 12 5 8 5 5 7 6 6 18 27 31 27 28 28 33 34 29 25 22 18 14 14 17 13 9 14 14 16 19 25 21 21 24 19 18 21 19 18 18 17
16 12 21 15 12 10 6 5 8 6 5 3 2 5 7 2 10 23 30 29 31 29 30 30 35 32 29 25 21 17 16 21 20 15 18 13 15 16 24 22 19 20 20 17 17 16 14 14 13
11 11 26 21 20 19 12 11 8 12 6 0 2 2 11 11 7 21 29 29 29 31 32 30 34 35 31 30 27 23 20 23 26 21 19 16 14 15 17 21 21 20 19 17 15 13 11 11 10
6 14 23 27 19 18 12 16 8 5 10 6 7 5 7 7 6 23 27 30 33 37 35 34 34 35 35 31 32 28 26 25 28 25 23 21 16 17 17 20 20 21 20 18 15 12 9 9 7
19 20 36 28 12 13 17 18 12 12 19 13 12 12 11 13 16 23 33 35 38 42 44 39 39 38 38 36 35 33 31 28 27 26 24 23 18 19 20 21 22 22 22 20 17 13 10 7 5
15 29 30 35 17 20 21 17 23 21 27 23 19 17 19 18 23 30 34 38 40 39 39 44 42 40 47 42 40 32 30 30 30 28 28 24 26 30 28 26 27 26 25 23 20 18 14 11 11
19 30 34 23 16 15 23 24 22 29 35 34 22 29 24 28 29 33 38 39 40 43 45 48 44 44 44 46 41 39 37 36 34 35 34 33 33 31 31 29 29 29 28 24 24 22 19 15 13
25 33 22 31 16 21 26 30 33 49 41 37 37 38 34 36 36 35 38 38 41 46 48 51 51 49 50 48 43 42 42 42 39 39 40 38 36 35 33 31 31 31 30 29 26 25 23 20 17
3 29 31 27 21 29 24 40 33 44 32 37 37 41 42 42 42 40 43 45 48 48 50 51 55 57 53 53 53 49 46 44 44 42 42 42 40 40 38 37 36 34 34 31 29 27 24 22 21
18 21 22 28 28 24 17 35 41 65 50 50 49 49 44 45 44 48 46 50 52 52 51 56 55 59 61 58 55 52 53 51 49 48 47 44 45 44 42 42 41 39 38 35 33 32 30 26 25
17 21 23 16 35 24 17 37 33 39 36 45 37 38 44 50 52 52 50 50 50 53 56 57 59 60 64 65 61 58 55 55 55 53 51 49 48 48 46 46 45 43 42 40 38 36 34 31 27
19 21 33 26 32 17 25 25 24 28 37 49 47 43 41 44 44 46 49 50 51 55 56 58 63 63 66 69 67 65 64 63 60 59 56 55 53 52 50 51 48 46 46 44 42 40 37 32 30
24 32 32 30 19 25 33 41 37 47 55 50 54 53 53 52 52 45 47 52 51 54 56 58 62 65 69 70 71 72 75 74 68 64 63 60 59 58 57 55 54 51 51 48 47 46 42 37 28
33 34 32 26 13 21 34 42 41 54 60 60 60 60 62 61 58 50 52 51 54 56 56 65 67 67 74 76 80 84 87 81 76 74 70 69 68 66 64 63 61 59 59 54 51 49 46 43 38
41 38 38 28 14 19 37 51 46 51 62 66 64 67 65 63 61 54 53 55 58 60 69 69 68 72 77 82 80 83 85 83 80 82 80 80 77 75 72 70 70 68 65 61 59 58 54 50 44
37 39 31 30 24 30 34 56 51 53 75 74 73 77 77 75 73 74 64 62 63 67 74 78 79 78 82 82 80 82 80 83 86 90 89 90 85 85 80 79 77 75 74 71 66 66 64 59 52
37 32 31 27 18 18 7 22 40 40 46 46 52 54 60 60 63 64 58 58 62 70 72 83 90 86 87 84 86 90 93 94 93 91 89 89 89 92 88 87 83 82 83 81 73 73 72 65 62
24 20 21 25 28 29 36 19 11 15 28 28 30 40 48 50 49 51 52 53 58 58 70 82 91 97 94 92 93 94 98 99 96 92 92 91 89 93 94 94 89 89 90 88 81 82 80 77 72
11 19 21 19 5 14 31 26 22 23 14 11 17 38 36 38 35 31 37 40 42 47 56 73 81 88 95 101 98 100 102 100 98 99 100 96 93 93 93 95 96 95 94 92 90 87 86 84 80
30 20 6 9 9 15 20 25 39 14 19 33 36 32 33 30 30 32 38 35 33 40 50 57 75 84 83 94 103 104 104 102 102 100 103 104 101 102 97 96 99 98 96 97 97 94 92 91 87
39 28 10 16 11 12 22 24 24 10 21 26 27 25 28 20 14 13 19 30 34 36 42 49 52 73 76 81 99 105 102 99 102 102 105 106 107 104 97 99 100 97 93 97 100 100 97 97 94
27 34 36 24 3 7 14 36 35 31 34 46 35 23 2 6 13 16 28 46 55 57 38 39 49 57 64 78 87 99 103 105 104 103 103 104 103 104 100 98 96 90 94 96 98 96 96 95 97
33 21 7 9 12 18 29 37 27 12 19 23 13 26 5 14 16 27 36 44 57 44 51 43 47 60 65 70 78 92 86 97 105 103 103 103 103 101 98 99 98 89 84 88 92 90 87 89 92
30 34 15 11 12 9 10 18 13 19 15 3 12 5 16 17 32 44 42 50 54 52 49 51 48 44 60 65 66 85 69 79 89 98 102 104 104 99 97 100 97 91 86 81 82 82 81 84 85
40 51 47 18 19 10 19 33 9 9 2 11 12 11 17 28 41 48 49 62 50 54 54 47 50 49 43 48 61 74 65 71 84 92 94 94 97 97 98 98 95 89 86 81 78 78 79 79 79
Wind_Direction_850mb
356 348 336 310 250 220 76 79 51 98 118 56 92 343 13 18 7 37 144 154 156 151 167 166 159 161 149 144 131 119 114 115 117 117 112 114 117 113 114 112 105 91 99 97 95 95 93 91 90
356 3 312 290 273 263 90 63 94 68 67 114 139 297 220 73 56 110 143 158 152 153 159 169 162 168 157 146 123 118 125 132 132 124 120 120 122 120 113 121 121 109 101 101 97 98 95 93 92
346 342 292 312 293 45 63 76 112 97 102 151 189 326 353 55 75 138 158 157 157 156 156 183 168 171 164 148 128 123 126 120 126 121 129 125 124 133 121 124 117 115 106 104 103 99 99 97 96
356 292 226 263 39 72 34 59 129 142 157 215 324 142 88 70 94 155 167 163 158 161 161 178 170 175 170 156 141 133 137 128 125 136 139 141 138 138 134 128 122 125 115 111 106 104 103 100 98
327 276 267 251 102 93 43 4 181 160 135 135 262 66 60 91 166 174 169 167 162 164 171 175 171 182 178 172 161 154 161 158 153 170 154 143 141 142 138 137 135 134 127 114 111 109 106 103 100
292 291 258 240 150 142 80 65 189 182 127 123 196 320 71 286 205 175 166 165 169 168 174 181 179 187 187 185 181 173 167 168 175 193 163 146 145 149 148 148 146 147 138 120 116 112 107 106 104
283 277 277 295 242 211 130 148 197 209 213 160 12 309 91 73 185 176 168 171 174 179 174 191 185 190 190 194 195 197 182 178 181 192 173 157 162 164 161 161 166 155 150 147 133 122 116 113 110
260 270 270 255 265 252 157 178 190 216 190 340 242 134 114 148 195 177 175 177 181 187 184 185 189 195 197 202 204 211 207 202 214 210 186 175 179 184 179 176 173 170 163 162 152 143 135 124 118
206 246 250 245 242 266 159 195 204 222 219 204 207 261 176 196 190 182 183 192 192 199 193 190 196 195 200 204 211 214 218 213 224 212 199 183 187 194 189 188 187 179 180 176 171 168 156 142 137
217 231 244 259 274 257 196 237 212 229 209 210 210 207 228 224 204 198 201 202 206 209 204 199 197 201 202 202 216 215 222 224 223 218 201 187 192 199 191 202 197 193 194 193 189 189 184 176 175
214 241 250 258 255 263 265 238 245 256 254 247 240 203 205 203 210 208 214 216 218 214 213 207 206 199 206 201 212 207 218 215 217 217 213 193 204 214 209 209 207 205 204 206 202 206 205 195 196
246 240 261 273 271 238 245 253 253 251 263 283 271 249 236 218 215 221 217 216 215 217 217 220 211 207 214 208 211 209 211 212 215 214 211 208 209 217 210 215 213 214 212 212 212 215 220 220 222
242 247 242 250 253 251 267 249 258 264 266 267 272 265 252 245 237 229 228 221 217 223 225 227 216 215 216 213 216 212 215 217 217 218 219 215 215 218 214 219 217 218 219 220 220 224 230 233 237
280 240 247 248 254 258 258 261 256 259 266 260 260 259 258 254 248 240 227 220 225 225 224 227 223 221 218 221 220 219 220 221 217 221 223 220 218 220 221 221 223 223 225 224 225 229 235 242 246
249 254 250 237 239 252 262 261 248 260 260 261 262 259 261 263 250 245 239 229 224 230 223 224 231 228 224 223 225 223 225 227 224 224 225 223 222 224 224 226 227 227 230 228 229 231 235 241 248
222 241 251 234 228 220 226 261 266 258 259 252 258 263 258 262 261 254 246 239 228 224 226 221 231 231 229 229 226 227 229 229 229 225 228 226 225 226 227 229 229 231 233 232 234 236 239 241 245
221 242 220 241 211 235 212 271 264 266 271 260 269 264 265 266 263 260 251 244 234 225 224 224 227 230 230 229 231 229 229 231 232 229 229 230 229 227 229 230 232 232 234 236 235 237 238 242 240
225 227 243 247 202 214 251 263 265 267 274 270 266 271 267 264 262 262 258 251 240 233 224 226 229 231 228 227 231 231 234 234 233 231 233 233 234 232 230 232 232 232 235 236 237 238 239 236 239
253 245 253 252 244 292 270 273 274 273 267 266 264 264 265 266 265 263 257 250 245 232 227 226 227 230 226 225 227 230 235 236 237 235 232 236 236 235 232 232 234 234 236 237 238 240 237 240 232
242 252 250 256 275 276 278 274 270 268 269 265 266 268 269 269 265 263 259 251 244 239 236 233 227 231 230 229 233 236 241 242 242 240 236 234 236 237 236 235 235 237 238 237 237 238 238 238 237
234 239 245 262 290 275 287 284 263 254 257 260 259 263 264 264 266 268 264 253 245 238 238 239 239 237 235 232 231 232 235 242 242 240 238 236 236 239 238 238 237 239 241 240 241 242 240 240 235
240 240 256 262 273 258 260 288 288 289 275 272 271 263 261 258 259 265 266 260 252 246 241 242 248 244 240 236 230 232 234 237 242 243 244 241 239 240 241 242 240 240 243 243 242 244 245 241 239
233 249 242 247 253 267 258 271 281 270 281 273 261 267 261 262 262 269 266 269 264 253 250 243 245 246 243 240 235 234 235 239 243 243 244 244 242 242 243 244 243 242 242 246 244 244 244 245 243
208 241 258 258 310 240 234 227 281 258 271 313 275 268 275 268 272 287 282 277 272 260 255 244 244 244 244 242 241 236 239 239 237 243 245 246 245 245 243 244 245 245 244 246 247 246 247 247 248
220 211 207 221 212 244 211 208 244 285 267 291 272 290 302 288 292 289 292 295 287 271 266 258 247 243 236 240 242 243 242 242 243 245 247 247 246 244 245 243 243 244 245 245 246 247 248 249 248
207 189 209 215 210 249 192 232 244 238 253 269 272 295 304 300 306 330 343 2 345 303 267 258 258 248 238 232 242 246 244 244 245 245 247 249 250 252 253 249 246 246 245 245 245 248 250 250 252
194 220 235 273 297 278 226 249 262 254 246 267 261 263 223 9 2 12 7 359 359 357 326 270 268 261 252 240 239 243 246 246 247 250 250 249 251 252 252 252 251 248 246 245 244 244 247 246 249
232 156 149 206 224 232 241 246 246 190 225 265 247 196 287 317 316 340 341 338 346 350 354 336 291 274 258 253 239 239 249 252 252 253 253 249 249 249 247 249 252 251 247 244 242 243 244 241 246
209 225 228 212 222 228 250 240 259 282 272 239 347 155 330 353 334 334 332 331 331 332 332 339 329 295 263 248 244 240 248 252 255 254 255 254 249 245 242 246 249 252 250 245 241 241 244 244 246
218 221 215 217 214 264 278 269 291 285 220 335 315 359 332 320 327 330 326 330 320 325 331 325 322 315 293 257 245 248 250 252 251 251 251 248 243 243 242 245 247 249 251 249 243 241 242 245 246